Regional Weather Roundup
Issued by NWS

Home | Current Version | Previous Version | Text Only | Print | Product List | Glossary On
Versions: 1 2 3 4 5 6 7 8 9 10 11 12 13 14 15 16 17 18 19 20 21 22 23 24 25 26 27 28 29 30 31 32 33 34 35 36 37 38 39 40 41 42 43 44 45 46 47 48 49 50
000
ASHW40 PHFO 100010
RWRHI

WEATHER ROUNDUP FOR HAWAII
NATIONAL WEATHER SERVICE HONOLULU HI
200 PM HST WED JUL 09 2014

THIS IS AN AUTOMATED REPORT THAT HAS NOT BEEN QUALITY CONTROLLED.

NOTE..."FAIR" INDICATES FEW OR NO CLOUDS BELOW 12,000 FEET WITH NO
SIGNIFICANT WEATHER AND/OR OBSTRUCTIONS TO VISIBILITY.

* - THESE SITES REPORT LIMITED FIELDS

HIZ001>004-100100-
KAUAI-NIIHAU-

CITY           SKY/WX    TMP DP  RH WIND       PRES   REMARKS
LIHUE APT      CLOUDY    80  73  79 E14       30.05F
PORT ALLEN*      N/A     84 N/A N/A E17G29      N/A
POIPU*           N/A     84 N/A N/A NE10G20     N/A
PRINCEVILLE*   NOT AVBL
KOKOLE POINT*  NOT AVBL
MOLOAA DAIRY*  NOT AVBL
WAIMEA HTS*    NOT AVBL
PUU OPAE*      NOT AVBL
PUU LUA*       NOT AVBL
MAKAHA RIDGE*  NOT AVBL
$$

HIZ005>011-100100-
OAHU-

CITY           SKY/WX    TMP DP  RH WIND       PRES   REMARKS
HONOLULU       PTSUNNY   88  64  44 NE21G28   30.00F
KALAELOA       PTSUNNY   87  65  47 VRB6G18   30.00F
KANEOHE MCB    CLOUDY    81  68  65 NE10G21   30.02F
WHEELER FIELD  PTSUNNY   80  66  61 NE13G21   30.02F
BELLOWS*       NOT AVBL
KAHUKU*        NOT AVBL
WHEELER*       NOT AVBL
WAIANAE HARBOR NOT AVBL
DILLINGHAM*      N/A     90  68  48 NE12G21     N/A  HX  93
KAHUKU TRN*      N/A     81  70  69 E13G28      N/A
KAWAILOA*      NOT AVBL
KII*             N/A     82  72  69 E18G24      N/A
MAKUA RANGE*     N/A     88  64  45 E12G22      N/A
OAHU FOREST NW NOT AVBL
SCHOFIELD BRK*   N/A     81  64  57 MISG        N/A
SCHOFIELD S*   NOT AVBL
WAIANAE VLY*   NOT AVBL
KUAOKALA*      NOT AVBL
HONOULIUULI*   NOT AVBL
MOKUOLOE IS*     N/A    N/A N/A N/A MISG        N/A
PALEHUA*       NOT AVBL
WAIAWA PHB*    NOT AVBL
$$

HIZ012>013-100100-
MOLOKAI-

CITY           SKY/WX    TMP DP  RH WIND       PRES   REMARKS
MOLOKAI AIRPT  CLOUDY    82  71  69 NE18G30   29.99F
KALAUPAPA      NOT AVBL
MAKAPULAPAI*   NOT AVBL
MOLOKAI 1*     NOT AVBL
PUU ALII*      NOT AVBL
$$

HIZ016-100100-
KAHOOLAWE-

CITY           SKY/WX    TMP DP  RH WIND       PRES   REMARKS
KAHOOLAWE*     NOT AVBL
HAKIOAWA*      NOT AVBL
HONOKANAIA*      N/A     86  67  52 NE18G37   29.99
KANELOA*         N/A     82  70  65 E22G36    30.09S
KEALIALALO*    NOT AVBL
LUA MAKIKA*    NOT AVBL
$$

HIZ014>015-100100-
LANAI-

CITY           SKY/WX    TMP DP  RH WIND       PRES   REMARKS
LANAI CITY     CLOUDY    83  68  60 NE21G31   30.03F HAZE
LANAI 1*       NOT AVBL
$$

HIZ017>028-100100-
MAUI-

CITY           SKY/WX    TMP DP  RH WIND       PRES   REMARKS
KAHULUI        PTSUNNY   86  68  54 NE22G31   29.98F
KAPALUA-W MAUI MOSUNNY   84  66  54 NE21G32   29.99F
HANA AIRPORT   CLOUDY    77  70  78 E10       30.06R
HANA*          NOT AVBL
HALEAKALA SUMM   N/A     59  43  55 NE13        N/A
MAALAEA BAY*   NOT AVBL
HALEAKALA*     NOT AVBL
KAUPO GAP*     NOT AVBL
KULA 1*          N/A     67  58  72 NW6         N/A
$$

HIZ023>026-100100-
BIG ISLAND OF HAWAII COAST AND LOWER SLOPES-

CITY           SKY/WX    TMP DP  RH WIND       PRES   REMARKS
KAILUA KONA    MOSUNNY   85  70  60 SW12      29.95F
HILO           LGT RAIN  74  74 100 N5        30.02S FOG
HONOKAA*       NOT AVBL
KAWAIHAE MWT*  NOT AVBL
KAWAIHAE*        N/A     81 N/A N/A SW12        N/A
SOUTH POINT*   NOT AVBL
UPOLU AIRPORT* NOT AVBL
KAMUELA*       LGT RAIN  73  66  78 N21       30.08S VSB 1/2
HAKALAU*         N/A     63  60  89 S5          N/A
KALOKO-HONOKO* NOT AVBL
PALI 2*          N/A     77  64  65 NE18G31     N/A
KEALAKOMO*       N/A     86  70  58 E18G35      N/A  HX  90
KAUPULEHU*     NOT AVBL
KAPAPALA*        N/A     77  66  69 E13G26      N/A
LOWER KAHUKU*  NOT AVBL
PUHE CS*       NOT AVBL
PUHO CS*       NOT AVBL
PTA KEAMUKU*     N/A     73  64  73 NE20G29     N/A
WAIKOLOA*      NOT AVBL
$$

HIZ027>028-100100-
BIG ISLAND OF HAWAII INTERIOR AND SUMMMITS-

CITY           SKY/WX    TMP DP  RH WIND       PRES   REMARKS
BRADSHAW FIELD MOSUNNY   76  47  36 SE15G24   30.31S
MK VISITOR CEN NOT AVBL
MAUNA KEA*       N/A     46  25  42 SE14        N/A
MAUNA LOA*     NOT AVBL
MAUNA LOA 1*   NOT AVBL
PTA KIPUKA*      N/A     72  61  68 NW9G20      N/A
PTA RANGE 17*    N/A     72  59  64 W13G24      N/A
PTA WEST*        N/A     73  63  68 NW12G18     N/A
NENE CABIN*    NOT AVBL
AHUMOA*        NOT AVBL
PTA PORTABLE*  NOT AVBL
PUU MALI*      NOT AVBL
$$

HIC003-100100-
NORTHWEST ISLANDS-

CITY           SKY/WX    TMP DP  RH WIND       PRES   REMARKS
MIDWAY ISLAND  SUNNY     84  73  70 E10       30.22F HX  91
MIDWAY NOS*    NOT AVBL
FRENCH FRIGATE NOT AVBL
$$

PHZ110>124-180-100100-
BUOY REPORTS

STATION/POSITION TIME  TEMP    WIND        PRES    WAVE   SWELL
                       AIR SEA DIR/SP/G            HT/PER HT/DIR
                 (UTC) (F)     (DEG/KT/KT) (MB)    (FT/S) (FT/D)
BUOY 51001       NOT AVBL
BUOY 51101       NOT AVBL
BUOY 51100       0000   76     100/ 14       N/A
BUOY 51003       2300   80 80   60/ 16/ 17 1015.6F   6/ 7   3
BUOY 51004       NOT AVBL
BARBERS PT BUOY  NOT AVBL
WAIMEA BAY BUOY  0000      80                N/A     4/ 7
KAILUA BAY BUOY  0000      79                N/A     6/ 7   2/100
LANAI BUOY       0000      80                N/A     3/15   2/200
BARBERS PT 2     0000      80                N/A     4/15   2/200
PAUWELA MAUI     0000      79                N/A     5/ 6   2/ 70
HILO             NOT AVBL
KANEOHE BAY BUOY 0000      79                N/A     5/ 6
HANALEI KAUAI    0000      79                N/A     5/ 7
KAHULUI HARBOR   0000   78 80   30/ 20/ 23 1015.5F
HONOLULU HARBOR  0000   84      10/  3/  9 1016.0F
KILO NALU        NOT AVBL
HILO HARBOR      0000   75      20/  6/  8 1015.9F
MOKUOLOE         0000   82 81   90/ 14/ 17 1017.0F
NAWILIWILI       0000      80                N/A
WHOTS BUOY       NOT AVBL
BUOY 51028       NOT AVBL
$$

......................KEY........................................
  SKY/WX - SKY CONDITIONS/PRESENT WEATHER
  TMP    - TEMPERATURE IN FAHRENHEIT
  DWPT   - DEWPOINT IN FAHRENHEIT
  RH     - RELATIVE HUMIDITY IN PERCENT
  WIND   - DIRECTION AND SPEED /MPH FOR ISLANDS...KTS FOR BUOYS/
  PRES   - MEAN SEA LEVEL PRESSURE IN INCHES OF HG
  VSB    - VISIBILITY IN MILES
  HX     - HEAT INDEX
  WCI    - WIND CHILL INDEX
  VRB    - VARIABLE WIND DIRECTION
  N/A    - NOT AVAILABLE



USA.gov is the U.S. government's official web portal to all federal, state and local government web resources and services.